Weather History for PAVD - February, 2013

Change the Weather History Date:

Wednesday, February 13, 2013

  Actual Average Record
Temperature  
Mean Temperature 28 °F -  
Max Temperature 30 °F 30 °F 42 °F (1991)
Min Temperature 26 °F 18 °F 0 °F (1972)
Degree Days  
Heating Degree Days 37    
Moisture  
Dew Point 27 °F    
Average Humidity 93    
Maximum Humidity 100    
Minimum Humidity 74    
Precipitation  
Precipitation 0.15 in - - ()
Sea Level Pressure  
Sea Level Pressure 29.93 in    
Wind  
Wind Speed 2 mph (NNW)    
Max Wind Speed 7 mph    
Max Gust Speed -    
Visibility 6 miles    
Events      
Averages and records for this station are not official NWS values.
T = Trace of Precipitation, MM = Missing Value Source: NWS Daily Summary

Daily Weather History Graph

Daily Weather History Graph

Search for Another Location

Airport or City:

Trip Planner

Search our weather history database for the weather conditions in past years. The results will help you decide how hot, cold, wet, or windy it might be!

Date:

Astronomy

Feb. 13, 2013 Rise Set
Actual Time 8:31 AM AKST 5:27 PM AKST
Civil Twilight 7:45 AM AKST 6:13 PM AKST
Nautical Twilight 6:54 AM AKST 7:04 PM AKST
Astronomical Twilight 6:05 AM AKST 7:54 PM AKST
Moon 8:47 AM AKST (2/13) 11:09 PM AKST (2/13)
Length of Visible Light 10h 28m
Length of Day
8h 56m
Waxing Crescent, 15% of the Moon is Illuminated
Feb 13
Waxing Crescent
Feb 17
First Quarter
Feb 25
Full
Mar 4
Last Quarter
Mar 11
New

Hourly Weather History & Observations

Time (AKST) Temp. Windchill Dew Point Humidity Pressure Visibility Wind Dir Wind Speed Gust Speed Precip Events Conditions
12:16 AM 28.4 °F 24.6 °F 24.8 °F 86% 29.89 in 5.0 mi North 3.5 mph - N/A   Overcast
12:36 AM 28.4 °F 23.3 °F 24.8 °F 86% 29.89 in 9.0 mi East 4.6 mph - N/A   Overcast
12:56 AM 26.6 °F - 26.6 °F 100% 29.90 in 10.0 mi Calm Calm - N/A   Overcast
1:16 AM 26.6 °F 22.6 °F 23.0 °F 86% 29.89 in 10.0 mi East 3.5 mph - N/A   Overcast
1:36 AM 26.6 °F 22.6 °F 26.6 °F 100% 29.89 in 10.0 mi North 3.5 mph - N/A   Overcast
1:56 AM 26.6 °F 22.6 °F 24.8 °F 93% 29.88 in 10.0 mi WNW 3.5 mph - N/A   Overcast
2:16 AM 26.6 °F - 24.8 °F 93% 29.88 in 10.0 mi Calm Calm - N/A   Overcast
2:36 AM 28.4 °F 23.3 °F 21.2 °F 74% 29.88 in 10.0 mi WNW 4.6 mph - N/A   Overcast
2:56 AM 28.4 °F 24.6 °F 21.2 °F 74% 29.88 in 10.0 mi WSW 3.5 mph - N/A   Overcast
3:16 AM 28.4 °F 24.6 °F 23.0 °F 80% 29.89 in 10.0 mi NW 3.5 mph - N/A   Overcast
3:56 AM 28.4 °F - 23.0 °F 80% 29.90 in 2.0 mi Calm Calm - N/A   Overcast
4:16 AM 26.6 °F - 24.8 °F 93% 29.90 in 0.8 mi Calm Calm - 0.01 in   Overcast
5:36 AM 26.6 °F - 26.6 °F 100% 29.90 in 3.0 mi Calm Calm - N/A   Overcast
5:56 AM 26.6 °F - 24.8 °F 93% 29.90 in 2.5 mi Calm Calm - N/A   Overcast
6:16 AM 28.4 °F 22.2 °F 26.6 °F 93% 29.90 in 2.5 mi West 5.8 mph - N/A   Overcast
6:56 AM 28.4 °F 24.6 °F 28.4 °F 100% 29.91 in 0.5 mi SW 3.5 mph - 0.02 in   Overcast
7:56 AM 28.4 °F 23.3 °F 26.6 °F 93% 29.94 in 0.5 mi NW 4.6 mph - 0.05 in   Overcast
8:36 AM 28.4 °F - 26.6 °F 93% 29.94 in 0.5 mi Calm Calm - 0.01 in   Overcast
8:56 AM 28.4 °F 23.3 °F 26.6 °F 93% 29.95 in 0.8 mi West 4.6 mph - 0.01 in   Overcast
9:36 AM 28.4 °F 23.3 °F 24.8 °F 86% 29.97 in 1.5 mi NW 4.6 mph - 0.01 in   Overcast
9:56 AM 30.2 °F - 28.4 °F 93% 29.97 in 3.0 mi Calm Calm - 0.02 in   Overcast
10:16 AM 30.2 °F - 26.6 °F 86% 29.98 in 3.0 mi Calm Calm - 0.01 in   Overcast
10:36 AM 30.2 °F 26.7 °F 28.4 °F 93% 29.97 in 3.0 mi North 3.5 mph - 0.04 in   Overcast
11:16 AM 28.4 °F 23.3 °F 28.4 °F 100% 29.99 in 7.0 mi East 4.6 mph - N/A   Mostly Cloudy
11:36 AM 28.4 °F - 28.4 °F 100% 29.99 in 7.0 mi Calm Calm - N/A   Mostly Cloudy
11:56 AM 28.4 °F 21.2 °F 28.4 °F 100% 29.99 in 7.0 mi ESE 6.9 mph - N/A   Mostly Cloudy
12:16 PM 30.2 °F - 28.4 °F 93% 29.98 in 7.0 mi Calm Calm - N/A   Mostly Cloudy
12:36 PM 30.2 °F - 28.4 °F 93% 29.99 in 7.0 mi Calm Calm - N/A   Mostly Cloudy
12:56 PM 30.2 °F - 28.4 °F 93% 29.99 in 3.0 mi Calm Calm - N/A   Overcast
1:16 PM 30.2 °F - 28.4 °F 93% 29.98 in 3.0 mi Calm Calm - N/A   Overcast
1:36 PM 30.2 °F - 28.4 °F 93% 29.98 in 3.0 mi Calm Calm - N/A   Overcast
1:56 PM 30.2 °F - 28.4 °F 93% 29.98 in 7.0 mi Calm Calm - N/A   Mostly Cloudy
2:16 PM 30.2 °F - 28.4 °F 93% 29.98 in 7.0 mi Calm Calm - N/A   Mostly Cloudy
2:36 PM 30.2 °F - 26.6 °F 86% 29.98 in 7.0 mi Calm Calm - N/A   Mostly Cloudy
2:56 PM 30.2 °F - 28.4 °F 93% 29.98 in 6.0 mi Calm Calm - N/A   Mostly Cloudy
3:36 PM 30.2 °F - 28.4 °F 93% 29.97 in 6.0 mi Calm Calm - N/A   Mostly Cloudy
3:56 PM 30.2 °F - 30.2 °F 100% 29.97 in 7.0 mi Calm Calm - N/A   Overcast
4:16 PM 28.4 °F - 28.4 °F 100% 29.96 in 7.0 mi Calm Calm - N/A   Overcast
4:36 PM 28.4 °F - 28.4 °F 100% 29.96 in 7.0 mi Calm Calm - N/A   Overcast
4:56 PM 30.2 °F - 28.4 °F 93% 29.95 in 4.0 mi Calm Calm - N/A   Overcast
5:16 PM 30.2 °F - 28.4 °F 93% 29.94 in 4.0 mi Calm Calm - N/A   Overcast
5:36 PM 28.4 °F - 28.4 °F 100% 29.94 in 4.0 mi Calm Calm - N/A   Overcast
5:56 PM 28.4 °F - 26.6 °F 93% 29.93 in 8.0 mi Calm Calm - N/A   Overcast
6:16 PM 28.4 °F - 28.4 °F 100% 29.92 in 8.0 mi Calm Calm - N/A   Overcast
6:36 PM 28.4 °F - 28.4 °F 100% 29.92 in 8.0 mi Calm Calm - N/A   Overcast
6:56 PM 28.4 °F - 28.4 °F 100% 29.92 in 8.0 mi Calm Calm - N/A   Mostly Cloudy
7:36 PM 28.4 °F 23.3 °F 28.4 °F 100% 29.92 in 8.0 mi NNE 4.6 mph - N/A   Mostly Cloudy
8:16 PM 28.4 °F - 28.4 °F 100% 29.91 in 6.0 mi Calm Calm - N/A   Overcast
8:36 PM 28.4 °F - 28.4 °F 100% 29.91 in 6.0 mi Calm Calm - N/A   Overcast
9:56 PM 28.4 °F - 26.6 °F 93% 29.88 in 10.0 mi Calm Calm - N/A   Overcast
10:16 PM 26.6 °F 22.6 °F 24.8 °F 93% 29.87 in 10.0 mi ENE 3.5 mph - N/A   Overcast
10:36 PM 26.6 °F - 26.6 °F 100% 29.86 in 10.0 mi Calm Calm - N/A   Overcast
10:56 PM 26.6 °F - 24.8 °F 93% 29.85 in 10.0 mi Calm Calm - N/A   Overcast
11:16 PM 26.6 °F - 26.6 °F 100% 29.85 in 10.0 mi Calm Calm - N/A   Overcast
11:36 PM 26.6 °F - 24.8 °F 93% 29.85 in 10.0 mi Calm Calm - N/A   Overcast